TIME,DELAY(SENSOR),PRES,OXYGEN,RAWTEMP,T(OPTODE),TCPHASE,FLUOR,BETA(BETA700),BETA(BETA412),BETA(BETA440),CDOM,C(CSC),ED(ED412.20),ED(ED444.00),ED(ED489.60),ED(ED554.30),LU(LU412.10),LU(LU443.90),LU(LU489.70),LU(LU554.70),COMP,TILTX,TILTY,CHECK
1348715547,5809,892.1300048828125000,34.8218383789062500,556.7526855468750000,4.5864930152893070,56.2820014953613300,55,99,100,78,82,15562,0,0,0,0,2147122806,2147779611,2147570788,2147570002,2060,3,13,21030
1348719143,5809,962.9600219726562000,39.9353981018066400,564.9287719726562000,4.3330421447753910,55.5706596374511700,55,100,99,78,82,15558,0,0,0,0,2147126208,2147777499,2147573504,2147567872,3537,3,13,3336
1348722743,5811,979.6300048828125000,40.4235687255859400,565.8074951171875000,4.3057708740234375,55.5094604492187500,55,100,99,79,83,15528,0,0,0,0,2147125193,2147773458,2147570486,2147569499,11,3,13,3050
1348726343,5810,985.2100219726562000,40.0044403076171900,565.3007812500000000,4.3214988708496090,55.5641899108886700,54,99,102,79,82,15528,0,0,0,0,2147126427,2147780260,2147569353,2147568155,175,3,13,57853
1348729943,5812,991.2100219726562000,39.8945693969726560,565.5626220703125000,4.3133740425109860,55.5811004638671900,55,99,100,77,84,15528,0,0,0,0,2147124580,2147777325,2147572032,2147570724,49,3,12,42179
1348733543,5813,989.6099853515625000,39.7625503540039060,565.7761230468750000,4.3067440986633300,55.6059608459472660,56,101,100,78,82,15526,0,0,0,0,2147126363,2147778541,2147573220,2147570075,3550,3,13,30197
1348737143,5807,990.2800292968750000,40.0944099426269500,566.2083129882812000,4.2933311462402340,55.5565681457519500,55,98,101,78,82,15525,0,0,0,0,2147126400,2147776411,2147574756,2147568722,269,3,13,13172
1348740743,5808,985.7299804687500000,40.4798393249511700,566.9061889648438000,4.2716622352600100,55.5084991455078100,56,99,102,78,82,15526,0,0,0,0,2147123931,2147775149,2147572214,2147569216,470,3,12,58457
1348744343,5808,990.9899902343750000,40.3927307128906250,567.6754150390625000,4.2477760314941410,55.5298995971679700,55,100,102,79,81,15527,0,0,0,0,2147124754,2147776548,2147574107,2147569408,202,3,13,4126
1348747943,5806,996.7800292968750000,40.3819198608398440,566.4307250976562000,4.2864251136779785,55.5203208923339840,55,100,101,78,83,15523,0,0,0,0,2147123382,2147777289,2147574985,2147572827,3409,3,13,56604
1348751543,5812,1000.6199951171875000,39.7691307067871100,566.0270996093750000,4.2989540100097660,55.6091995239257800,54,98,101,78,82,15523,0,0,0,0,2147121691,2147777472,2147572653,2147570596,3503,3,13,4040
1348755143,5808,998.8300170898438000,39.3386192321777340,566.2199707031250000,4.2929668426513670,55.6736717224121100,54,99,101,77,82,15520,0,0,0,0,2147124160,2147773997,2147572461,2147571611,225,3,13,62352
1348758743,5810,995.7600097656250000,39.9169311523437500,566.7603759765625000,4.2761878967285160,55.5962791442871100,56,98,99,78,83,15526,0,0,0,0,2147126262,2147776192,2147573796,2147572333,3572,3,13,65398
1348762343,5808,992.9099731445312000,39.6004295349121100,567.9429931640625000,4.2394661903381350,55.6578216552734400,55,97,100,78,82,15520,0,0,0,0,2147123163,2147775515,2147571593,2147571876,660,3,13,26580
1348765943,5813,994.6799926757812000,39.9632301330566400,568.0319213867188000,4.2367038726806640,55.5984497070312500,55,98,101,79,83,15520,0,0,0,0,2147125147,2147776594,2147575067,2147571264,155,3,12,14942
1348769543,5808,1000.1900024414062000,40.4842185974121100,567.2719116210938000,4.2603068351745605,55.5115013122558600,55,99,100,78,82,15520,0,0,0,0,2147126162,2147778806,2147572617,2147570157,340,3,13,2682
1348773143,5809,996.9600219726562000,40.4449996948242200,566.4531860351562000,4.2857251167297360,55.5104408264160160,56,98,100,79,82,15521,0,0,0,0,2147123702,2147773613,2147568950,2147570916,230,3,13,40159
1348776743,5809,1003.1799926757812000,40.4749107360839840,567.1350708007812000,4.2645549774169920,55.5153884887695300,54,99,100,78,82,15517,0,0,0,0,2147123721,2147770779,2147572041,2147570560,3177,3,13,44591
1348780343,5809,1003.6699829101562000,40.3712196350097660,566.7601928710938000,4.2761960029602050,55.5253982543945300,56,98,101,79,83,15518,0,0,0,0,2147124452,2147776347,2147573696,2147571510,182,3,13,62166
1348783943,5810,1001.8599853515625000,39.5440788269043000,566.2081298828125000,4.2933349609375000,55.6438407897949200,56,99,100,78,83,15518,0,0,0,0,2147122861,2147775926,2147576768,2147572562,3295,3,13,24650
1348787543,5811,1004.9600219726562000,40.4656181335449200,566.3018798828125000,4.2904238700866700,55.5068283081054700,56,98,100,78,82,15515,0,0,0,0,2147123026,2147774592,2147569545,2147572406,3369,3,13,53628
1348791143,5811,1001.0999755859375000,40.0960998535156250,567.2622070312500000,4.2606091499328610,55.5750694274902340,55,99,100,77,83,15518,0,0,0,0,2147123675,2147776219,2147573403,2147572233,3558,3,13,8542
1348794743,5810,999.3699951171875000,40.6064682006835940,567.4276123046875000,4.2554721832275390,55.4949989318847660,55,99,100,78,82,15519,0,0,0,0,2147124297,2147774738,2147575451,2147570093,2837,3,13,19876
1348798343,5810,1001.2899780273438000,40.7767982482910160,568.3720092773438000,4.2261409759521480,55.4814300537109400,55,99,101,80,83,15518,0,0,0,0,2147123474,2147777234,2147572498,2147568667,3334,3,13,9926
1348801943,5808,1000.7800292968750000,40.6087989807128900,568.4940185546875000,4.2223529815673830,55.5095481872558600,55,99,100,78,83,15517,0,0,0,0,2147125065,2147772873,2147573650,2147572004,241,3,12,42880
1348805543,5812,995.2500000000000000,40.6416816711425800,568.7517089843750000,4.2143459320068360,55.5082702636718750,55,100,100,78,83,15517,0,0,0,0,2147124644,2147778157,2147575753,2147569673,77,3,13,9303
1348809143,5812,1000.7800292968750000,40.9954109191894500,568.9071044921875000,4.2095179557800290,55.4545898437500000,55,98,101,78,83,15513,0,0,0,0,2147125266,2147776429,2147573174,2147570029,44,3,13,17590
1348812743,5809,1001.2199707031250000,40.2998695373535160,568.6087036132812000,4.2187881469726560,55.5572204589843750,56,100,101,79,84,15515,0,0,0,0,2147122614,2147769965,2147569856,2147571291,2,3,12,28240
1348816343,5809,1000.2700195312500000,40.7274513244628900,568.7667236328125000,4.2138791084289550,55.4974784851074200,55,100,100,78,83,15516,0,0,0,0,2147123492,2147782500,2147573613,2147568768,3528,3,13,47438
1348819943,5808,999.0200195312500000,41.3716316223144500,568.6992187500000000,4.2159790992736820,55.3984603881835940,55,97,100,78,83,15516,0,0,0,0,2147122550,2147777664,2147570486,2147568064,126,3,12,50043
1348823543,5807,1000.7199707031250000,40.8166503906250000,568.5501098632812000,4.2206082344055180,55.4786415100097660,56,100,100,79,83,15515,0,0,0,0,2147125760,2147780050,2147572260,2147571035,308,3,13,60131
1348827143,5808,1003.1799926757812000,41.0778198242187500,568.7407836914062000,4.2146849632263180,55.4403305053710940,54,98,101,79,83,15516,0,0,0,0,2147123620,2147775305,2147576649,2147570870,214,3,13,21236
1348830743,5809,1006.2500000000000000,40.2610702514648440,567.7266845703125000,4.2461810111999510,55.5484809875488300,54,99,99,78,82,15513,0,0,0,0,2147127277,2147777554,2147576539,2147572992,3459,3,13,44281
1348834343,5808,1007.9299926757812000,40.3348312377929700,567.8651733398438000,4.2418818473815920,55.5395393371582000,54,98,101,79,82,15514,0,0,0,0,2147126089,2147771245,2147568777,2147571611,3141,3,13,6641
1348837943,5809,1007.5000000000000000,39.5455894470214840,567.8436889648438000,4.2425498962402340,55.6622314453125000,54,99,101,77,82,15513,0,0,0,0,2147122953,2147773522,2147568905,2147571958,3485,3,13,58697
1348841543,5809,1007.9500122070312000,39.7705802917480500,567.6229248046875000,4.2494068145751950,55.6260108947753900,55,99,101,77,82,15513,0,0,0,0,2147123556,2147773833,2147568987,2147570441,3149,3,13,44648
1348845143,5810,1004.2800292968750000,40.2005805969238300,568.1456909179688000,4.2331700325012210,55.5620384216308600,56,98,101,78,81,15514,0,0,0,0,2147123337,2147771904,2147572059,2147569965,3526,3,13,1766
1348848743,5809,1004.5300292968750000,40.2661705017089840,568.3745727539062000,4.2260589599609375,55.5608291625976560,54,99,101,78,82,15497,0,0,0,0,2147124516,2147772982,2147574198,2147569572,28,3,12,52100
1348852343,5809,1007.1199951171875000,39.4577102661132800,568.1721191406250000,4.2323489189147950,55.6802711486816400,55,98,101,77,83,15497,0,0,0,0,2147125897,2147774802,2147575360,2147571035,121,3,13,46852
1348855943,5806,1012.1599731445312000,40.3564796447753900,567.6713256835938000,4.2479038238525390,55.5354614257812500,54,99,100,79,82,15495,0,0,0,0,2147125348,2147774939,2147572891,2147567542,262,3,13,56615
1348859543,5812,1003.9400024414062000,39.5834693908691400,568.1217041015625000,4.2339148521423340,55.6551284790039060,55,101,101,77,83,15497,0,0,0,0,2147126345,2147773860,2147576347,2147570130,3287,3,13,59160
1348860356,5810,1004.1799926757812000,39.6252403259277340,568.3615722656250000,4.2264609336853030,55.6567916870117200,55,99,101,78,81,15498,0,0,0,0,2147124059,2147774445,2147570486,2147569764,211,3,13,37415
